Home   Weather   Port Vila   Past weeks
Flag for Vanuatu

Past Weather in Port Vila, Vanuatu — Yesterday and Last 2 Weeks

Now
73 °F

Passing clouds.


Feels Like: 73 °F
Forecast: 81 / 74 °F
Wind: 1 mph from North

Location: Bauerfield Efate

Current Time: Oct 22, 2019 at 2:21:26 am

Latest Report: Oct 22, 2019 at 12:00 am


Visibility: N/A

Pressure: 29.95 "Hg

Humidity: 83%

Dew Point: 68 °F

Location of Port VilaLocation

Past Weather in Port Vila — Graph

°F

Port Vila Temperature Yesterday

Maximum temperature yesterday: 88 °F (at 10:00 am)
Minimum temperature yesterday: 70 °F (at 4:00 am)
Average temperature yesterday: 77 °F

High & Low Weather Summary for the Past Weeks

 TemperatureHumidityPressure
High90 °F (Oct 13, 2:00 pm)100% (Oct 7, 8:00 pm)30.04 "Hg (Oct 7, 8:00 pm)
Low61 °F (Oct 17, 5:00 am)55% (Oct 13, 4:00 pm)29.80 "Hg (Oct 10, 4:00 pm)
Average76 °F85%29.91 "Hg
* Reported Oct 7 3:00 am — Oct 22 12:00 am, Port Vila. Weather by CustomWeather, © 2019

Note: Actual official high and low records may vary slightly from our data, if they occured in-between our weather recording intervals... More about our weather records

Advertising

Port Vila Weather History for the Previous 24 Hours

Scroll right to see more
 ConditionsComfort  
Time TempWeatherWind HumidityBarometerVisibility
12:00 am
Tue, Oct 22
73 °FPassing clouds.1 mph83%29.95 "HgN/A
11:00 pm
Mon, Oct 21
73 °FPassing clouds.2 mph94%29.98 "HgN/A
10:00 pm75 °FPassing clouds.2 mph94%29.98 "HgN/A
9:00 pm75 °FPassing clouds.3 mph94%29.98 "HgN/A
8:00 pm75 °FPassing clouds.2 mph94%29.98 "HgN/A
7:00 pm75 °FPassing clouds.3 mph94%29.95 "HgN/A
6:00 pm77 °FPassing clouds.8 mph89%29.92 "HgN/A
5:00 pm79 °FPartly sunny.13 mph84%29.89 "HgN/A
4:00 pm81 °FPartly sunny.14 mph79%29.86 "HgN/A
3:00 pm82 °FPartly sunny.14 mph74%29.86 "HgN/A
2:00 pm84 °FPartly sunny.14 mph74%29.86 "HgN/A
1:26 pm81 °FSprinkles. Partly sunny.8 mph84%29.89 "Hg6 mi
12:56 pm82 °FRain showers. Partly sunny.12 mph79%29.89 "Hg2 mi
12:00 pm84 °FPartly sunny.15 mph74%29.89 "HgN/A
10:00 am88 °FPartly sunny.8 mph66%29.92 "HgN/A
9:00 am86 °FScattered clouds.9 mph66%29.95 "HgN/A
8:00 am82 °FPartly sunny.7 mph79%29.95 "HgN/A
7:00 am77 °FPassing clouds.No wind94%29.92 "HgN/A
6:00 am72 °FPassing clouds.No wind100%29.92 "HgN/A
5:00 am70 °FPassing clouds.No wind100%29.92 "HgN/A
4:00 am70 °FPassing clouds.No wind100%29.92 "HgN/A
3:00 am72 °FPassing clouds.No wind100%29.89 "HgN/A
2:00 am72 °FPassing clouds.No wind100%29.92 "HgN/A
Weather by CustomWeather, © 2019

See weather overview